Flag for U.S.A. Weather past 2 weeks in Boston, Massachusetts, U.S.A.

Now
75 °F

Broken clouds.


Feels Like: 76 °F
Forecast: 62 / 75 °F
Wind: 9 mph from South

Location: Logan International Airport

Current Time: Sep 21, 2014 at 10:46:15 AM

Latest Report: Sep 21, 2014 at 9:54 AM


Visibility: 10 mi

Pressure: 29.91 "Hg

Humidity: 74%

Dew point: 66 °F

Location of BostonLocation

Historic Weather in Boston — Graph

°F

Boston temperature yesterday

Maximum temperature yesterday: 71 °F (at 1:54 PM)
Minimum temperature yesterday: 47 °F (at 5:54 AM)
Average temperature yesterday: 59 °F

Past Weeks' High & Low Weather Summary

 TemperatureHumidityPressure
High91 °F (Sep 6, 12:54 PM)97% (Sep 11, 1:54 AM)30.43 "Hg (Sep 11, 1:54 AM)
Low47 °F (Sep 19, 6:54 AM)36% (Sep 7, 12:54 PM)29.74 "Hg (Sep 6, 5:54 PM)
Average63 °F69%30.12 "Hg
* Reported Sep 6 8:54 AM — Sep 21 8:54 AM, Boston, Weather by CustomWeather, © 2014

Note: Actual official high and low records may vary slightly from our data, if they occured in-between our weather recording intervals... More about our weather records

Advertising

Boston weather history for previous 24 hours

 ConditionsComfort  
Time TempWeatherWind HumidityBarometerVisibility
8:54 AM
Sep 21
72 °FBroken clouds.12 mph78%29.93 "Hg10 mi
7:54 AM69 °FBroken clouds.7 mph84%29.94 "Hg10 mi
6:54 AM65 °FPassing clouds.No wind87%29.96 "Hg10 mi
5:54 AM64 °FMostly cloudy.3 mph87%29.96 "Hg10 mi
4:54 AM64 °FMostly cloudy.3 mph87%29.98 "Hg10 mi
3:54 AM63 °FMostly cloudy.5 mph90%30.00 "Hg10 mi
2:54 AM63 °FOvercast.6 mph87%30.02 "Hg10 mi
1:54 AM63 °FMostly cloudy.8 mph81%30.06 "Hg10 mi
12:54 AM63 °FPassing clouds.10 mph81%30.08 "Hg10 mi
11:54 PM
Sep 20
62 °FPassing clouds.10 mph80%30.09 "Hg10 mi
10:54 PM62 °FPassing clouds.10 mph78%30.11 "Hg10 mi
9:54 PM63 °FClear.13 mph75%30.13 "Hg10 mi
8:54 PM64 °FPassing clouds.10 mph70%30.14 "Hg10 mi
7:54 PM66 °FPassing clouds.14 mph63%30.14 "Hg10 mi
6:54 PM67 °FMostly cloudy.15 mph61%30.14 "Hg10 mi
5:54 PM68 °FPartly sunny.17 mph59%30.15 "Hg10 mi
4:54 PM69 °FPartly sunny.15 mph57%30.15 "Hg10 mi
3:54 PM71 °FPartly sunny.16 mph53%30.16 "Hg10 mi
2:54 PM70 °FPartly sunny.14 mph55%30.18 "Hg10 mi
1:54 PM71 °FPartly sunny.15 mph49%30.20 "Hg10 mi
Weather by CustomWeather, © 2014

See weather overviewHow to use our weather pages